When you browse on this site, cookies collect data to enhance your experience and personalize the content and advertising you see.
Visit our Privacy Policy to learn more. By continuing to use the site, you agree to this use of cookies and data.
  • In Hungary
  • List of Countries
  • For 7 days
  • Water Temperature
  • Satellite Maps
  • Weather Map
  • News
  • Weather Widgets
  • user-avatar
    Login

    Hourly Weather Stodolovo

    Today, 25 May, Saturday

    Time Temperature Precipitation Wind Pressure Humidity
    00:00 +15°C° 0 mm 1 mps 749 mmHg 92%
    01:00 +15°C° 0 mm 1 mps 749 mmHg 92%
    02:00 +14°C° 0 mm 1 mps 749 mmHg 92%
    03:00 +14°C° 0 mm 1 mps 749 mmHg 92%
    04:00 +13°C° 0 mm 1 mps 749 mmHg 92%
    05:00 +13°C° 0 mm 1 mps 748 mmHg 91%
    06:00 +14°C° 0 mm 1 mps 748 mmHg 84%
    07:00 +16°C° 0 mm 1 mps 748 mmHg 77%
    08:00 +18°C° 0 mm 1 mps 748 mmHg 70%
    09:00 +18°C° 0 mm 2 mps 748 mmHg 64%
    10:00 +19°C° 0 mm 3 mps 747 mmHg 57%
    11:00 +21°C° 0 mm 3 mps 747 mmHg 51%
    12:00 +21°C° 0.1 mm 4 mps 747 mmHg 53%
    13:00 +21°C° 0.1 mm 5 mps 747 mmHg 55%
    14:00 +21°C° 0.1 mm 5 mps 746 mmHg 57%
    15:00 +20°C° 0.3 mm 5 mps 746 mmHg 61%
    16:00 +19°C° 0.3 mm 4 mps 746 mmHg 65%
    17:00 +19°C° 0.3 mm 4 mps 746 mmHg 68%
    18:00 +17°C° 0 mm 3 mps 746 mmHg 72%
    19:00 +16°C° 0 mm 3 mps 746 mmHg 75%
    20:00 +14°C° 0 mm 2 mps 746 mmHg 79%
    21:00 +13°C° 0 mm 2 mps 746 mmHg 81%
    22:00 +11°C° 0 mm 3 mps 746 mmHg 83%
    23:00 +9°C° 0 mm 3 mps 746 mmHg 86%

    Tomorrow, 26 May, Sunday

    Time Temperature Precipitation Wind Pressure Humidity
    00:00 +9°C° 0 mm 3 mps 747 mmHg 88%
    01:00 +8°C° 0 mm 3 mps 747 mmHg 91%
    02:00 +7°C° 0 mm 3 mps 747 mmHg 93%
    03:00 +7°C° 0 mm 3 mps 747 mmHg 91%
    04:00 +8°C° 0 mm 3 mps 747 mmHg 89%
    05:00 +8°C° 0 mm 3 mps 747 mmHg 87%
    06:00 +9°C° 0 mm 3 mps 747 mmHg 82%
    07:00 +10°C° 0 mm 3 mps 747 mmHg 78%
    08:00 +11°C° 0 mm 3 mps 747 mmHg 73%
    09:00 +13°C° 0 mm 3 mps 747 mmHg 68%
    10:00 +16°C° 0 mm 3 mps 747 mmHg 62%
    11:00 +17°C° 0 mm 4 mps 746 mmHg 57%
    12:00 +18°C° 0.1 mm 4 mps 746 mmHg 56%
    13:00 +17°C° 0.1 mm 5 mps 746 mmHg 56%
    14:00 +19°C° 0.1 mm 6 mps 745 mmHg 56%
    15:00 +17°C° 0.2 mm 6 mps 745 mmHg 60%
    16:00 +16°C° 0.2 mm 7 mps 745 mmHg 63%
    17:00 +14°C° 0.2 mm 7 mps 745 mmHg 67%
    18:00 +13°C° 0 mm 6 mps 745 mmHg 70%
    19:00 +11°C° 0 mm 6 mps 745 mmHg 73%
    20:00 +10°C° 0 mm 5 mps 745 mmHg 76%
    21:00 +10°C° 0 mm 5 mps 745 mmHg 76%
    22:00 +9°C° 0 mm 5 mps 745 mmHg 77%
    23:00 +9°C° 0 mm 5 mps 745 mmHg 78%

    Day after tomorrow, 27 May, Monday

    Time Temperature Precipitation Wind Pressure Humidity
    00:00 +9°C° 0 mm 5 mps 745 mmHg 82%
    01:00 +8°C° 0 mm 5 mps 745 mmHg 85%
    02:00 +7°C° 0 mm 4 mps 746 mmHg 88%
    03:00 +8°C° 0 mm 4 mps 746 mmHg 87%
    04:00 +8°C° 0 mm 5 mps 746 mmHg 86%
    05:00 +8°C° 0 mm 5 mps 746 mmHg 84%
    06:00 +9°C° 0 mm 5 mps 746 mmHg 82%
    07:00 +9°C° 0 mm 5 mps 746 mmHg 80%
    08:00 +10°C° 0 mm 5 mps 747 mmHg 78%
    09:00 +12°C° 0 mm 5 mps 747 mmHg 72%
    10:00 +13°C° 0 mm 5 mps 747 mmHg 66%
    11:00 +15°C° 0 mm 5 mps 747 mmHg 61%
    12:00 +15°C° 0.2 mm 5 mps 747 mmHg 64%
    13:00 +15°C° 0.2 mm 5 mps 748 mmHg 67%
    14:00 +15°C° 0.2 mm 5 mps 748 mmHg 70%
    15:00 +14°C° 0.8 mm 3 mps 748 mmHg 78%
    16:00 +14°C° 0.8 mm 2 mps 747 mmHg 86%
    17:00 +13°C° 0.8 mm 1 mps 747 mmHg 94%
    18:00 +14°C° 0.2 mm 2 mps 747 mmHg 95%
    19:00 +14°C° 0.2 mm 2 mps 747 mmHg 95%
    20:00 +14°C° 0.2 mm 2 mps 747 mmHg 96%
    21:00 +14°C° 0 mm 2 mps 747 mmHg 97%
    22:00 +14°C° 0 mm 2 mps 748 mmHg 97%
    23:00 +13°C° 0 mm 2 mps 748 mmHg 97%

    28 May, Tuesday

    Time Temperature Precipitation Wind Pressure Humidity
    00:00 +13°C° 0 mm 2 mps 748 mmHg 97%
    01:00 +13°C° 0 mm 2 mps 748 mmHg 98%
    02:00 +13°C° 0 mm 2 mps 748 mmHg 98%
    03:00 +13°C° 0.3 mm 2 mps 748 mmHg 98%
    04:00 +13°C° 0.3 mm 1 mps 748 mmHg 98%
    05:00 +13°C° 0.3 mm 1 mps 748 mmHg 98%
    06:00 +15°C° 0 mm 1 mps 748 mmHg 93%
    07:00 +16°C° 0 mm 1 mps 749 mmHg 89%
    08:00 +18°C° 0 mm 1 mps 749 mmHg 85%
    09:00 +18°C° 0.1 mm 2 mps 749 mmHg 82%
    10:00 +18°C° 0.1 mm 2 mps 749 mmHg 80%
    11:00 +19°C° 0.1 mm 3 mps 750 mmHg 77%
    12:00 +20°C° 0 mm 3 mps 750 mmHg 72%
    13:00 +20°C° 0 mm 2 mps 750 mmHg 66%
    14:00 +21°C° 0 mm 2 mps 750 mmHg 61%
    15:00 +20°C° 0.3 mm 2 mps 750 mmHg 69%
    16:00 +19°C° 0.3 mm 2 mps 750 mmHg 77%
    17:00 +18°C° 0.3 mm 1 mps 750 mmHg 85%
    18:00 +18°C° 0.2 mm 1 mps 750 mmHg 87%
    19:00 +16°C° 0.2 mm 1 mps 750 mmHg 88%
    20:00 +14°C° 0.2 mm 0 mps 750 mmHg 90%
    21:00 +14°C° 0 mm 0 mps 750 mmHg 90%
    22:00 +13°C° 0 mm 0 mps 750 mmHg 90%
    23:00 +13°C° 0 mm 0 mps 750 mmHg 90%

    29 May, Wednesday

    Time Temperature Precipitation Wind Pressure Humidity
    00:00 +12°C° 0 mm 0 mps 750 mmHg 91%
    01:00 +12°C° 0 mm 0 mps 750 mmHg 92%
    02:00 +12°C° 0 mm 1 mps 750 mmHg 93%
    03:00 +12°C° 0.5 mm 1 mps 750 mmHg 94%
    04:00 +13°C° 0.5 mm 1 mps 749 mmHg 95%
    05:00 +13°C° 0.5 mm 2 mps 749 mmHg 95%
    06:00 +14°C° 0.1 mm 2 mps 749 mmHg 95%
    07:00 +14°C° 0.1 mm 2 mps 749 mmHg 95%
    08:00 +14°C° 0.1 mm 3 mps 748 mmHg 95%
    09:00 +14°C° 3.6 mm 3 mps 748 mmHg 95%
    10:00 +14°C° 3.6 mm 3 mps 748 mmHg 96%
    11:00 +14°C° 3.6 mm 4 mps 748 mmHg 97%
    12:00 +14°C° 2.3 mm 4 mps 748 mmHg 94%
    13:00 +14°C° 2.3 mm 4 mps 749 mmHg 92%
    14:00 +14°C° 2.3 mm 4 mps 749 mmHg 89%
    15:00 +16°C° 0 mm 3 mps 750 mmHg 85%
    16:00 +17°C° 0 mm 3 mps 750 mmHg 80%
    17:00 +17°C° 0 mm 2 mps 751 mmHg 76%
    18:00 +16°C° 0.1 mm 2 mps 751 mmHg 80%
    19:00 +15°C° 0.1 mm 2 mps 752 mmHg 85%
    20:00 +13°C° 0.1 mm 3 mps 752 mmHg 90%
    21:00 +12°C° 0 mm 3 mps 753 mmHg 88%
    22:00 +10°C° 0 mm 3 mps 753 mmHg 86%
    23:00 +9°C° 0 mm 3 mps 754 mmHg 84%

    30 May, Thursday

    Time Temperature Precipitation Wind Pressure Humidity
    00:00 +8°C° 0 mm 3 mps 755 mmHg 82%
    01:00 +5°C° 0 mm 3 mps 755 mmHg 79%
    02:00 +3°C° 0 mm 3 mps 756 mmHg 77%
    03:00 +4°C° 0 mm 3 mps 756 mmHg 77%
    04:00 +4°C° 0 mm 3 mps 757 mmHg 76%
    05:00 +4°C° 0 mm 3 mps 757 mmHg 76%
    06:00 +7°C° 0 mm 2 mps 758 mmHg 70%
    07:00 +9°C° 0 mm 2 mps 758 mmHg 63%
    08:00 +13°C° 0 mm 2 mps 758 mmHg 57%
    09:00 +13°C° 0 mm 3 mps 758 mmHg 52%
    10:00 +14°C° 0 mm 3 mps 758 mmHg 46%
    11:00 +17°C° 0 mm 4 mps 758 mmHg 41%
    12:00 +17°C° 0 mm 4 mps 758 mmHg 41%
    13:00 +18°C° 0 mm 4 mps 758 mmHg 42%
    14:00 +19°C° 0 mm 4 mps 758 mmHg 43%
    15:00 +19°C° 0 mm 4 mps 758 mmHg 46%
    16:00 +19°C° 0 mm 3 mps 757 mmHg 49%
    17:00 +19°C° 0 mm 3 mps 757 mmHg 52%
    18:00 +17°C° 0 mm 3 mps 757 mmHg 59%
    19:00 +16°C° 0 mm 3 mps 757 mmHg 66%
    20:00 +14°C° 0 mm 2 mps 757 mmHg 74%
    21:00 +13°C° 0 mm 2 mps 757 mmHg 76%
    22:00 +12°C° 0 mm 2 mps 757 mmHg 79%
    23:00 +10°C° 0 mm 2 mps 757 mmHg 82%
    Show more